Vorticity
8 8 7 7 7 7 7 8 9 9 9 9 10 10 10 10 10 11 10 11 11 11 11 10 10 10 11 11 11 12 11 12 12 13 14 13 13 13 14 14 14 14 13 13 13 13 12 11 10 9 9 10 11 10 9 10 9 8 8 9 12 11 15 12 -5 7 17 0 7 9 -1 8 7 6 19 21 15 4 -5 2 5 8 12 6 8 9 8 5
8 8 7 7 7 7 8 8 8 9 9 10 10 10 10 10 10 11 11 12 12 11 11 10 10 10 10 10 11 11 10 12 11 12 14 11 11 12 13 14 13 13 12 12 12 11 13 12 10 9 9 9 8 8 9 8 8 8 10 9 11 15 15 2 -11 5 20 5 -2 2 1 9 8 1 14 17 9 10 5 4 7 7 7 5 4 1 3 5
8 8 7 7 7 7 8 8 8 9 9 10 10 10 10 10 10 11 11 12 13 12 11 11 10 10 10 10 10 9 10 9 8 14 15 11 12 13 12 13 13 12 11 11 12 12 12 11 10 10 9 9 8 8 8 6 7 6 8 9 10 21 12 -12 -9 7 8 5 1 -3 4 17 20 9 8 13 11 6 4 10 13 11 11 5 4 5 4 4
8 7 7 7 7 7 7 8 8 8 9 9 9 10 9 10 10 10 12 12 13 13 12 11 9 9 9 9 9 9 10 6 9 16 11 8 12 11 11 12 12 12 12 12 12 11 12 11 10 10 9 9 8 9 7 6 8 6 5 9 16 25 4 -15 6 19 5 -2 -4 -9 1 17 20 11 6 8 10 8 9 14 11 10 12 9 10 8 5 6
7 7 7 7 7 7 7 8 8 8 8 9 9 9 9 9 9 10 11 12 13 13 13 12 9 9 8 8 9 8 7 4 11 18 11 12 13 9 10 11 11 12 12 12 11 12 11 10 10 9 8 9 8 7 8 7 9 9 8 9 18 14 -16 -18 8 20 12 -1 -3 -5 -5 5 10 11 11 8 4 5 9 12 12 9 6 10 9 4 10 7
8 8 7 7 7 7 7 8 8 8 8 8 8 9 9 9 9 9 9 11 12 13 14 13 10 8 7 8 8 6 7 5 8 11 10 16 16 11 10 9 11 12 11 11 10 10 9 9 9 8 8 8 7 7 7 7 9 10 10 9 17 9 -17 -12 2 5 12 8 13 12 0 2 3 7 15 15 7 2 7 13 15 12 10 13 9 15 20 4
7 7 7 7 7 7 7 8 8 8 8 8 8 8 9 8 9 9 9 9 10 12 14 14 12 8 7 7 7 6 6 6 6 4 2 8 12 13 11 9 11 10 10 11 10 9 8 9 8 8 9 7 6 6 6 6 7 8 9 9 12 10 -4 -4 -7 -10 3 13 20 18 10 11 10 11 14 17 13 1 4 9 8 9 9 8 9 20 14 -4
8 8 7 7 7 7 7 7 7 8 7 8 8 8 9 9 9 9 9 9 9 11 12 15 14 9 7 6 6 6 5 5 6 4 0 1 5 10 12 11 10 9 9 8 9 8 8 9 8 8 7 6 5 5 6 6 7 6 8 9 8 8 3 2 -0 -7 -1 8 14 13 10 9 10 15 10 12 18 8 3 1 4 12 10 6 3 5 1 -6
8 8 8 8 7 8 7 7 7 7 7 7 8 8 9 9 9 9 9 9 9 10 10 14 15 12 7 5 5 4 4 6 5 4 4 3 1 3 8 12 12 10 9 8 8 8 8 8 7 8 7 7 6 4 6 5 7 7 5 7 8 7 -0 -1 7 4 0 5 9 9 9 6 4 6 4 8 12 8 4 -2 1 8 6 6 0 -2 10 11
8 8 8 8 8 8 7 7 7 6 7 7 7 8 8 9 9 9 9 9 10 11 11 11 14 15 10 6 6 4 3 5 6 5 6 6 3 1 2 7 12 11 10 9 8 7 8 8 7 8 7 7 7 5 5 5 6 5 5 7 7 7 1 -4 5 7 2 6 8 8 9 9 6 2 2 4 9 15 12 1 -0 1 -4 -2 5 8 19 18
8 8 8 8 8 7 7 7 7 6 6 6 7 7 7 8 8 9 9 9 10 11 13 12 12 15 14 8 6 6 5 5 6 6 7 7 5 5 4 2 7 11 11 9 9 9 7 7 8 8 7 7 7 6 5 7 6 4 5 9 6 4 5 2 4 9 6 5 6 8 9 8 6 5 5 2 4 11 9 5 3 1 0 -2 2 7 5 5
8 8 8 8 7 7 7 6 6 6 6 6 6 7 7 7 7 8 9 10 11 11 14 14 12 12 15 13 7 6 8 8 6 4 7 9 6 7 9 5 2 7 11 10 9 10 8 8 9 7 7 8 6 5 8 8 7 6 4 7 8 4 4 3 5 9 6 5 4 5 9 8 7 7 11 13 11 15 11 5 6 3 7 2 -8 -5 -3 2
8 8 8 8 7 7 7 6 6 6 6 6 6 6 6 6 6 6 7 9 11 12 14 16 14 11 14 15 10 5 8 10 10 9 7 9 10 8 10 10 4 3 7 10 9 8 8 8 8 6 8 10 7 6 9 8 6 7 6 6 9 7 5 4 7 10 6 6 5 6 10 7 9 7 11 17 9 22 29 11 9 11 9 5 -4 1 4 6
9 8 8 8 8 7 7 7 6 6 6 6 6 6 6 6 5 5 6 8 10 13 15 17 17 13 13 14 12 7 6 9 11 12 10 9 12 9 8 12 10 5 3 7 10 8 7 8 8 6 9 9 7 10 9 8 7 7 8 8 9 9 9 7 6 9 8 8 7 7 10 8 9 5 12 19 -11 -10 19 16 9 9 13 13 5 5 1 2
9 8 9 8 8 8 7 7 6 6 6 6 6 6 6 6 5 5 5 6 9 12 15 18 19 16 13 12 13 10 5 7 9 9 10 10 12 9 8 10 13 10 4 4 7 8 7 8 8 7 10 7 6 12 10 9 10 9 10 10 10 9 10 10 8 11 7 5 7 5 7 8 11 10 10 13 -1 -10 2 13 12 4 9 11 4 7 3 3
8 8 9 9 9 8 7 7 6 7 6 6 7 6 6 6 5 5 4 5 7 11 15 18 20 17 14 12 13 11 5 7 10 9 9 10 11 10 9 9 12 13 8 5 4 5 5 7 8 7 8 8 8 10 8 9 12 12 13 10 11 11 10 10 11 15 12 9 10 7 9 7 13 27 12 -8 2 14 10 8 11 9 9 2 -1 7 7 5
8 8 8 8 9 9 8 8 7 7 6 6 6 6 6 5 5 5 5 5 5 9 13 17 20 18 13 11 12 11 7 6 8 9 9 10 11 11 9 9 10 12 12 9 5 4 5 6 8 8 8 8 8 11 10 11 11 13 15 11 12 13 11 17 17 10 13 22 17 9 12 9 10 19 14 9 9 8 15 14 7 9 11 2 -1 1 4 7
9 8 8 8 8 8 8 8 8 7 7 6 6 6 6 5 6 5 5 6 5 7 10 14 20 18 12 12 13 11 8 7 7 8 9 10 12 12 11 9 10 11 11 11 9 6 7 8 8 9 9 8 8 10 10 11 13 17 21 19 18 15 12 18 18 5 5 12 11 16 17 14 14 -0 5 37 29 9 24 21 9 17 14 -0 -0 3 4 7
9 9 8 8 8 8 7 7 7 7 7 6 6 6 6 6 6 5 6 7 6 6 8 13 19 17 12 12 13 12 8 6 7 8 9 10 11 13 12 10 9 11 11 10 10 9 8 9 10 10 10 11 12 11 12 18 21 16 15 17 16 18 21 18 9 2 3 -8 -8 17 23 17 11 -14 -6 21 -0 -6 20 12 2 16 13 0 0 5 6 6
10 10 9 9 8 8 7 7 6 6 7 6 6 6 5 6 5 6 8 7 6 7 7 11 16 16 13 12 12 13 9 4 7 9 8 11 11 12 12 11 10 9 10 10 10 12 11 9 11 11 12 15 15 13 16 21 16 2 1 8 9 16 23 18 4 -2 7 0 -2 22 26 18 10 -12 -0 18 -13 -31 -15 -3 4 2 -0 5 8 7 8 9
12 12 11 10 9 9 8 8 7 7 7 6 6 6 5 5 5 5 7 7 5 7 7 8 12 14 14 13 11 12 8 2 7 8 8 11 12 11 12 12 12 9 10 10 10 13 13 12 12 10 12 13 13 14 15 13 2 -9 0 11 12 18 16 14 14 2 5 13 10 25 27 8 2 -1 0 10 15 8 -9 -8 3 -1 0 8 10 6 3 7
13 13 13 13 11 11 9 9 8 7 8 7 7 7 6 5 5 4 6 7 5 6 8 7 8 11 12 14 13 13 9 4 6 7 7 11 10 11 11 11 11 9 10 11 11 13 12 12 12 10 12 11 10 13 11 8 3 -0 4 -1 2 20 13 6 20 8 -2 12 10 13 30 20 2 4 5 -3 9 26 13 -3 -8 -5 4 7 5 2 0 5
12 12 13 14 14 14 13 12 10 9 9 8 7 8 7 6 4 4 5 8 8 6 8 8 6 9 10 13 14 13 10 7 7 6 7 10 10 10 10 10 12 10 11 12 11 12 10 11 11 10 12 10 8 10 8 8 15 21 6 -21 -13 19 17 -1 10 9 -9 -3 -5 -19 -1 25 19 5 6 3 -5 4 20 22 13 3 2 7 6 2 4 8
12 12 12 13 13 13 15 16 14 12 11 10 10 9 9 8 5 4 5 7 8 6 8 8 6 6 8 11 13 11 11 10 8 6 7 9 11 12 10 10 11 10 12 12 11 10 9 11 11 11 10 6 9 11 12 11 16 26 14 -4 2 12 13 7 9 21 16 3 -2 -14 -23 -8 13 13 8 12 4 1 10 13 14 10 5 10 7 1 6 8
11 12 12 13 13 13 14 15 15 14 14 12 11 10 10 9 7 6 5 5 7 5 7 10 10 9 7 9 11 9 9 10 9 9 9 8 9 13 13 11 11 11 12 10 8 8 11 9 7 16 18 11 14 13 12 12 11 18 14 15 17 -2 -0 15 4 4 18 13 11 25 24 2 -5 0 7 15 2 -15 -19 -15 1 10 8 10 5 2 7 5
8 9 10 11 11 12 12 13 14 14 15 13 13 12 11 10 9 8 6 6 7 5 6 9 12 14 12 10 9 8 9 11 10 9 9 9 10 12 12 11 11 10 9 10 10 8 10 7 -3 1 7 10 17 14 12 14 13 16 12 13 15 -3 -3 9 0 2 12 6 -1 15 39 31 3 -7 9 21 5 -11 -6 1 8 8 6 8 5 4 6 3
7 7 7 7 8 9 8 9 10 11 13 11 12 14 12 10 9 8 8 8 7 6 7 6 5 8 12 14 11 9 10 10 9 8 9 10 10 12 11 11 12 11 7 5 7 10 10 7 0 -5 -1 10 14 9 13 14 12 18 17 18 19 8 7 0 -8 16 34 23 7 2 12 19 13 12 23 27 17 12 17 15 10 7 8 9 6 6 6 4
9 8 8 7 6 6 6 6 5 7 8 4 7 10 8 8 9 8 9 9 9 10 8 8 8 6 7 12 13 11 11 10 8 9 12 13 12 13 13 13 13 11 7 1 2 11 11 4 3 3 7 17 13 8 13 11 13 17 6 8 23 20 15 -0 -21 -7 18 22 15 8 6 11 15 10 1 3 10 13 14 15 13 8 8 8 6 7 10 14
10 10 10 10 8 7 7 6 4 6 5 2 4 5 3 5 7 7 8 6 10 14 9 7 11 8 4 9 12 9 10 12 13 11 11 12 12 12 13 13 12 7 5 6 6 10 13 11 7 3 4 11 12 11 13 10 13 17 -0 -10 13 29 20 2 -13 -13 -1 7 7 7 14 19 20 12 -3 -4 2 4 8 17 17 11 10 10 9 13 18 21
14 14 14 13 12 12 11 9 8 8 7 5 6 6 4 5 4 5 8 7 8 11 9 7 9 9 8 11 12 9 8 8 9 10 9 9 13 14 12 9 9 7 4 10 11 1 -0 10 13 11 6 7 13 10 10 15 12 12 8 -4 2 26 28 10 -3 -4 1 5 2 3 12 13 12 11 7 7 6 4 12 18 17 14 13 12 15 19 20 18
16 16 16 15 15 15 15 14 15 14 12 10 9 8 7 7 5 4 6 10 12 9 4 -0 0 4 7 10 11 9 10 8 5 8 8 8 13 15 13 10 7 7 5 8 13 3 -4 0 8 19 16 6 7 2 1 18 17 4 4 4 5 15 22 18 8 4 6 7 8 10 8 8 13 8 3 14 17 9 9 13 13 12 8 9 14 16 14 17
14 14 14 14 13 14 13 13 16 16 15 15 13 12 10 9 8 7 5 7 11 15 20 17 10 8 10 12 13 10 10 9 6 8 9 9 12 13 12 13 9 6 7 9 11 7 4 2 4 18 21 10 5 0 4 19 17 5 6 10 10 7 9 15 14 11 13 11 13 17 9 7 16 8 -0 11 10 0 6 13 10 11 11 8 8 11 12 13
14 13 14 14 13 14 13 12 14 14 14 15 15 14 13 11 10 10 10 8 3 3 14 21 16 13 14 12 11 13 13 10 7 9 11 8 8 10 11 14 11 5 5 10 11 8 7 6 6 10 11 11 11 6 10 19 12 5 13 14 6 3 5 8 11 14 16 15 12 11 8 8 13 10 4 6 0 -1 19 25 11 8 12 9 6 13 14 10
12 12 12 12 12 13 13 13 13 13 13 13 13 13 12 12 12 12 12 13 10 1 -3 3 7 9 16 16 9 11 15 12 8 7 11 10 7 8 10 11 10 6 3 4 6 7 8 9 9 10 8 11 16 9 2 9 16 14 13 10 4 6 5 -1 7 12 7 9 14 14 19 19 15 13 10 9 2 -6 5 17 13 6 5 7 12 17 12 9
12 12 11 12 12 11 12 12 11 12 12 12 13 12 11 12 13 16 16 13 15 11 1 4 11 6 7 13 10 10 14 14 12 9 9 9 7 8 11 12 11 7 3 3 3 5 6 8 10 10 9 10 14 14 3 -4 8 15 12 8 4 8 10 1 4 10 4 6 8 5 10 12 5 3 6 10 7 -2 -3 3 8 8 6 11 20 16 9 11
12 12 11 12 11 12 12 12 12 12 11 11 11 11 13 13 13 17 20 15 13 16 10 6 15 14 5 5 9 10 10 12 12 11 12 12 10 10 9 10 13 9 6 5 4 5 3 8 19 20 14 10 7 9 9 0 0 8 10 10 7 7 10 7 5 7 6 8 10 5 6 11 10 4 2 6 8 7 6 -1 -2 5 6 11 17 9 3 7
9 9 8 9 9 9 10 9 11 12 12 13 11 11 12 12 13 14 19 17 3 7 22 12 2 13 15 8 8 6 9 16 10 2 4 8 10 14 12 10 13 13 12 8 5 11 10 1 4 10 10 12 10 4 7 9 7 11 13 12 10 7 8 8 8 11 10 8 8 5 3 11 20 18 12 10 9 7 8 7 6 6 1 5 15 12 6 8
9 9 9 9 9 9 9 9 9 9 10 11 11 14 13 12 15 13 19 23 -6 -13 26 27 -2 5 19 20 21 12 6 13 10 4 6 5 6 11 12 11 13 14 16 11 0 3 12 8 2 7 11 15 17 9 5 9 3 -3 7 17 13 3 1 6 7 5 8 16 18 7 -2 0 6 13 16 14 15 12 6 6 6 6 8 9 6 1 1 6
10 10 10 11 11 12 11 12 13 11 11 10 9 12 13 12 16 12 14 22 -3 -17 20 31 -2 -6 6 11 22 23 15 14 10 9 10 6 10 14 8 5 5 11 19 19 10 -1 -2 7 11 14 16 14 18 14 4 8 6 -9 -5 13 18 9 -3 -2 9 7 -1 9 22 14 5 4 1 5 11 9 11 10 7 12 17 18 19 12 2 4 11 11
11 11 12 13 14 15 14 13 14 13 13 12 11 11 12 12 15 15 13 13 -3 -14 13 25 -5 -11 6 7 8 15 17 14 8 7 6 3 9 11 12 15 4 -1 9 15 20 20 9 2 -2 -2 3 2 7 17 11 4 7 5 4 4 6 13 10 -1 5 12 2 -2 10 12 7 7 5 2 2 2 5 6 7 15 22 22 18 13 14 19 20 10
11 13 15 14 13 12 12 12 13 16 16 16 16 14 15 12 11 16 16 17 8 -11 3 20 -5 -17 -0 3 8 19 19 16 13 9 8 11 16 9 5 13 5 -3 11 16 12 20 22 14 2 -8 -6 -5 -5 11 23 16 8 9 14 12 2 2 11 6 -3 2 6 -2 -5 3 7 6 5 5 4 5 9 12 9 1 -2 4 12 15 12 4 -1 -2
11 15 14 11 11 11 12 15 16 17 17 20 21 17 18 16 16 19 11 11 17 -2 -5 17 11 -2 -5 -15 -7 11 8 16 29 23 11 6 14 16 7 12 12 -1 6 14 6 6 13 16 17 6 -3 -0 -2 -4 8 19 17 8 4 11 15 9 8 9 2 7 21 16 -0 -1 4 1 2 8 9 7 6 6 8 5 1 3 6 6 3 2 5 8
12 14 11 10 12 13 16 18 16 14 15 18 19 17 18 16 16 22 8 -2 15 10 -5 5 9 14 17 -5 -10 2 -3 -1 16 27 26 10 1 9 9 12 18 5 -5 1 2 5 7 6 15 18 11 14 12 -4 -7 1 4 8 8 3 6 16 21 16 4 2 12 20 19 17 16 10 3 2 7 9 6 1 1 6 8 8 7 6 8 13 11 4
10 10 13 15 12 9 11 11 10 14 16 14 14 13 13 8 6 19 17 6 13 15 7 9 5 10 28 14 -9 -1 6 1 1 12 29 25 8 9 9 3 9 11 -0 -8 -7 3 11 6 8 13 7 10 16 8 9 11 -0 1 15 7 -10 -2 17 19 9 -0 -7 -5 5 9 10 11 7 1 3 6 8 9 9 9 10 12 14 12 11 13 7 0
9 10 13 13 11 12 17 19 19 19 12 9 14 14 13 13 11 20 26 17 13 9 5 14 10 6 30 35 6 -7 -5 -6 -1 10 21 23 15 20 27 17 12 20 15 2 -1 6 14 12 11 13 5 1 9 6 2 10 7 1 9 10 -5 -12 -1 13 17 15 7 -2 -2 0 -1 2 9 14 10 2 3 8 7 6 8 10 14 15 13 12 9 6
9 13 14 21 32 35 34 34 34 31 21 18 22 16 10 13 13 16 21 16 17 17 6 6 6 -6 6 27 17 3 -4 -16 -15 2 11 9 7 16 25 14 5 15 22 19 11 2 3 7 5 9 10 5 10 10 1 2 6 5 9 11 5 -7 -9 0 6 9 15 15 11 15 13 -0 -1 10 13 9 7 8 7 7 13 20 27 32 29 18 10 9
11 23 32 40 40 29 23 21 23 34 36 30 29 19 9 12 13 14 16 13 17 21 10 5 7 1 5 20 17 9 7 -8 -20 -7 6 5 4 7 11 10 8 10 15 24 24 6 -1 5 3 1 5 6 7 10 11 13 10 7 12 14 11 3 -2 2 2 -4 3 8 6 13 21 14 3 1 5 8 8 10 14 13 18 29 27 20 20 16 9 9
17 33 37 33 17 3 8 12 17 33 36 29 30 23 12 14 16 12 14 17 20 18 11 8 7 -0 3 19 26 20 16 3 -12 -9 -2 1 5 -0 -7 6 20 14 2 6 19 19 9 7 10 9 8 9 9 4 1 5 5 5 12 15 12 6 1 4 9 5 3 3 0 0 4 7 7 1 1 6 4 3 8 7 6 14 12 3 9 15 11 10
23 34 23 15 7 -7 -6 7 23 31 28 32 37 26 19 24 21 14 12 14 20 21 17 16 15 6 0 7 18 23 24 16 3 -3 -8 -10 4 5 -8 1 23 31 23 5 1 15 18 11 9 11 12 14 17 17 13 9 6 4 4 5 7 10 7 3 7 14 13 6 3 4 2 1 6 7 5 8 8 3 4 7 2 -0 6 13 14 10 7 9
23 34 19 9 9 -3 -13 3 28 30 23 36 40 20 14 21 19 20 20 12 14 19 17 14 14 13 9 4 6 14 26 25 13 10 6 -5 0 10 4 -4 -9 -1 21 25 12 8 10 11 10 7 10 12 10 13 18 18 18 15 8 1 -2 2 7 6 6 15 21 15 5 3 4 2 3 7 4 1 6 7 7 11 7 -2 2 15 18 13 10 9
16 31 29 16 10 9 7 12 28 29 19 27 34 18 9 11 11 17 23 17 13 15 13 10 10 14 14 10 7 9 20 27 17 14 17 7 -1 5 12 7 -17 -29 -6 17 19 13 9 9 8 3 5 10 8 8 12 15 18 21 19 15 8 3 2 -1 -5 -2 8 18 16 8 7 5 0 3 5 -1 -1 3 4 8 14 15 10 6 5 8 12 10
10 20 30 27 16 14 19 18 26 34 21 12 21 22 12 8 9 13 20 21 16 16 15 6 3 12 15 15 19 13 9 16 17 15 20 17 7 0 5 12 7 -1 -1 -1 5 17 18 13 10 5 3 6 9 12 14 15 18 19 20 22 22 20 14 4 -3 -4 -2 6 13 12 11 11 9 8 8 5 3 2 -1 0 9 18 18 9 -0 -1 3 5
Height
5754 5754 5754 5753 5753 5753 5752 5752 5751 5751 5751 5751 5750 5750 5750 5749 5749 5749 5748 5748 5748 5747 5747 5747 5747 5747 5747 5747 5747 5747 5747 5748 5748 5749 5750 5750 5751 5752 5753 5754 5755 5757 5759 5760 5762 5763 5765 5766 5767 5768 5770 5771 5773 5775 5776 5777 5778 5780 5781 5783 5786 5788 5791 5794 5799 5803 5804 5804 5797 5792 5790 5793 5800 5798 5798 5802 5802 5803 5802 5801 5801 5802 5806 5806 5808 5809 5811 5812
5751 5751 5751 5750 5750 5750 5749 5749 5748 5748 5748 5747 5747 5747 5746 5746 5746 5745 5745 5745 5744 5744 5744 5744 5744 5744 5744 5744 5744 5745 5745 5745 5746 5747 5748 5748 5749 5750 5751 5752 5753 5754 5756 5757 5759 5760 5762 5763 5764 5766 5767 5769 5770 5772 5773 5775 5776 5777 5779 5781 5784 5786 5790 5793 5799 5802 5799 5797 5792 5788 5787 5793 5799 5795 5796 5800 5799 5801 5800 5799 5800 5801 5804 5804 5806 5807 5808 5810
5748 5748 5747 5747 5747 5747 5746 5746 5745 5745 5745 5744 5744 5744 5743 5743 5743 5742 5742 5741 5741 5741 5741 5741 5741 5741 5741 5742 5742 5742 5742 5743 5743 5745 5746 5746 5747 5748 5749 5750 5751 5752 5753 5755 5756 5758 5759 5760 5762 5763 5765 5766 5768 5769 5770 5772 5773 5775 5777 5779 5782 5785 5787 5790 5795 5796 5791 5789 5788 5787 5788 5793 5795 5794 5796 5798 5797 5799 5797 5796 5798 5799 5802 5803 5804 5805 5807 5808
5744 5744 5744 5744 5744 5744 5743 5743 5742 5742 5742 5741 5741 5741 5740 5740 5739 5739 5739 5738 5738 5738 5738 5738 5739 5739 5739 5739 5740 5740 5740 5740 5741 5744 5744 5744 5745 5746 5747 5748 5749 5750 5751 5752 5754 5755 5757 5758 5759 5761 5762 5764 5765 5767 5768 5769 5771 5773 5775 5777 5781 5783 5785 5788 5789 5787 5785 5785 5786 5785 5789 5792 5791 5792 5794 5795 5796 5796 5794 5794 5795 5798 5800 5801 5802 5803 5805 5806
5741 5741 5741 5741 5741 5740 5740 5740 5740 5739 5739 5738 5738 5738 5737 5737 5736 5736 5736 5735 5735 5735 5735 5736 5736 5736 5737 5737 5737 5738 5738 5738 5740 5742 5741 5742 5743 5744 5745 5746 5747 5748 5749 5750 5752 5753 5754 5756 5757 5758 5760 5762 5763 5764 5766 5767 5769 5771 5773 5776 5779 5780 5782 5785 5785 5781 5780 5781 5782 5785 5790 5789 5786 5790 5792 5792 5793 5793 5794 5794 5793 5796 5797 5798 5800 5801 5803 5804
5738 5738 5738 5738 5737 5737 5737 5737 5737 5736 5736 5736 5735 5735 5734 5734 5734 5733 5733 5733 5732 5732 5733 5733 5733 5734 5734 5735 5735 5736 5736 5736 5738 5740 5739 5740 5741 5742 5743 5744 5745 5746 5747 5748 5750 5751 5752 5754 5755 5757 5758 5759 5761 5762 5764 5766 5767 5769 5771 5774 5776 5777 5776 5778 5779 5776 5775 5778 5781 5785 5788 5785 5785 5789 5790 5790 5790 5790 5792 5792 5792 5794 5795 5797 5798 5800 5801 5801
5734 5734 5734 5734 5734 5734 5734 5734 5734 5734 5733 5733 5732 5732 5731 5731 5731 5730 5730 5730 5730 5730 5730 5730 5731 5731 5732 5733 5733 5734 5734 5734 5737 5739 5738 5739 5740 5741 5741 5742 5743 5744 5745 5747 5748 5749 5750 5752 5753 5754 5756 5757 5759 5760 5762 5764 5765 5766 5769 5771 5773 5774 5772 5773 5775 5772 5772 5778 5782 5783 5784 5783 5786 5789 5788 5788 5789 5788 5789 5790 5792 5792 5794 5795 5796 5798 5799 5799
5731 5731 5731 5731 5731 5731 5731 5731 5731 5731 5730 5730 5730 5729 5729 5728 5728 5728 5727 5727 5727 5727 5727 5727 5728 5729 5729 5730 5731 5731 5731 5732 5736 5737 5736 5738 5739 5739 5740 5740 5742 5742 5744 5745 5746 5747 5748 5750 5751 5752 5754 5755 5757 5758 5760 5761 5762 5764 5767 5769 5770 5771 5772 5772 5773 5770 5771 5777 5780 5780 5781 5782 5786 5786 5784 5786 5787 5787 5787 5788 5790 5791 5792 5793 5794 5795 5794 5795
5728 5728 5728 5728 5728 5728 5728 5728 5728 5728 5728 5727 5727 5726 5726 5726 5725 5725 5724 5724 5724 5724 5724 5724 5725 5726 5727 5728 5728 5728 5729 5731 5734 5734 5735 5736 5737 5737 5738 5739 5740 5741 5742 5743 5744 5745 5746 5748 5749 5750 5752 5753 5754 5756 5757 5759 5760 5762 5765 5767 5767 5768 5769 5768 5770 5769 5770 5775 5776 5777 5780 5781 5784 5783 5781 5785 5786 5786 5786 5787 5788 5788 5791 5792 5792 5792 5791 5793
5725 5725 5725 5725 5725 5725 5725 5725 5725 5725 5725 5724 5724 5724 5723 5723 5722 5722 5722 5721 5721 5721 5721 5721 5722 5723 5724 5725 5726 5726 5727 5729 5731 5732 5732 5734 5735 5735 5736 5737 5738 5739 5740 5741 5742 5743 5744 5746 5747 5748 5749 5750 5752 5753 5754 5756 5757 5760 5763 5763 5764 5765 5765 5765 5767 5767 5769 5772 5773 5775 5778 5779 5780 5780 5780 5785 5785 5783 5785 5786 5786 5786 5788 5789 5789 5789 5791 5793
5722 5722 5722 5722 5722 5722 5722 5722 5722 5722 5722 5722 5721 5721 5721 5720 5720 5719 5719 5718 5718 5718 5718 5719 5719 5720 5721 5722 5723 5724 5725 5727 5728 5730 5730 5731 5733 5733 5734 5735 5736 5736 5737 5739 5740 5741 5742 5743 5744 5746 5747 5748 5749 5750 5752 5753 5755 5758 5758 5758 5760 5761 5762 5764 5764 5765 5768 5769 5771 5773 5776 5776 5777 5777 5779 5784 5782 5781 5783 5784 5785 5785 5785 5786 5787 5788 5790 5792
5718 5719 5719 5719 5719 5719 5719 5719 5719 5719 5719 5719 5719 5718 5718 5718 5717 5717 5716 5716 5716 5715 5715 5716 5716 5717 5717 5720 5721 5721 5723 5725 5725 5727 5728 5729 5730 5731 5732 5733 5733 5734 5735 5736 5737 5739 5740 5741 5742 5744 5745 5746 5746 5748 5750 5751 5753 5755 5754 5755 5758 5759 5760 5761 5762 5764 5766 5767 5769 5771 5773 5774 5775 5776 5778 5782 5780 5779 5782 5783 5784 5785 5783 5782 5784 5786 5787 5788
5715 5715 5715 5715 5716 5716 5716 5716 5716 5716 5716 5716 5716 5716 5715 5715 5714 5714 5714 5714 5713 5713 5713 5713 5713 5714 5715 5717 5718 5719 5721 5722 5723 5724 5726 5726 5727 5729 5729 5730 5731 5732 5733 5734 5735 5736 5738 5738 5740 5742 5742 5742 5744 5745 5747 5748 5750 5752 5752 5754 5756 5756 5758 5760 5761 5763 5764 5766 5767 5767 5770 5772 5773 5775 5778 5779 5778 5777 5780 5781 5782 5784 5782 5779 5781 5783 5784 5785
5711 5712 5712 5712 5712 5712 5712 5713 5713 5713 5713 5713 5713 5713 5713 5712 5712 5711 5711 5711 5711 5710 5710 5710 5710 5711 5713 5714 5715 5717 5718 5719 5721 5722 5723 5723 5724 5726 5727 5727 5729 5730 5731 5732 5733 5734 5735 5736 5738 5739 5739 5740 5742 5743 5743 5745 5748 5749 5750 5751 5753 5754 5756 5758 5760 5761 5762 5764 5765 5765 5767 5770 5772 5774 5776 5777 5775 5776 5779 5779 5781 5782 5780 5777 5780 5783 5783 5784
5708 5708 5708 5709 5709 5709 5709 5709 5709 5710 5710 5710 5710 5710 5710 5710 5709 5709 5709 5709 5708 5708 5707 5707 5707 5708 5710 5711 5713 5715 5715 5716 5718 5719 5720 5721 5722 5723 5724 5725 5726 5727 5728 5729 5730 5732 5733 5734 5735 5736 5736 5738 5740 5740 5740 5743 5745 5747 5748 5749 5750 5752 5754 5756 5757 5758 5761 5762 5763 5764 5765 5768 5771 5772 5775 5775 5772 5774 5778 5777 5779 5779 5777 5777 5779 5781 5782 5783
5704 5704 5705 5705 5705 5705 5706 5706 5706 5706 5707 5707 5707 5707 5707 5707 5707 5707 5706 5706 5706 5706 5705 5705 5705 5706 5707 5709 5710 5711 5712 5714 5716 5716 5718 5718 5719 5720 5721 5722 5723 5725 5726 5727 5728 5729 5730 5731 5732 5733 5734 5735 5736 5737 5738 5741 5742 5744 5745 5746 5748 5750 5752 5755 5756 5756 5758 5761 5760 5760 5763 5766 5770 5772 5774 5774 5770 5773 5776 5775 5777 5776 5775 5776 5777 5779 5781 5781
5701 5701 5701 5701 5702 5702 5702 5702 5703 5703 5704 5704 5704 5704 5704 5704 5704 5704 5704 5704 5704 5704 5703 5702 5703 5704 5704 5706 5708 5708 5710 5712 5713 5714 5715 5716 5716 5717 5718 5720 5721 5722 5723 5724 5726 5727 5728 5729 5729 5730 5731 5733 5734 5735 5736 5738 5740 5741 5743 5745 5747 5748 5750 5753 5756 5756 5755 5758 5758 5757 5760 5765 5768 5770 5773 5774 5769 5769 5773 5773 5774 5773 5773 5774 5775 5778 5779 5779
5697 5697 5697 5698 5698 5698 5699 5699 5699 5700 5700 5701 5701 5701 5701 5701 5701 5701 5702 5702 5702 5702 5701 5701 5701 5701 5702 5704 5705 5706 5708 5710 5711 5711 5712 5713 5713 5714 5716 5717 5718 5720 5721 5722 5723 5724 5725 5726 5727 5728 5729 5730 5731 5732 5734 5736 5739 5741 5742 5743 5745 5747 5749 5751 5755 5757 5753 5755 5758 5756 5757 5764 5767 5766 5769 5772 5768 5767 5769 5771 5772 5770 5770 5772 5772 5775 5776 5776
5693 5693 5694 5694 5694 5695 5695 5695 5696 5697 5697 5698 5698 5698 5698 5698 5698 5698 5699 5700 5700 5700 5699 5699 5699 5699 5700 5702 5703 5704 5705 5707 5708 5709 5710 5711 5711 5712 5714 5715 5716 5717 5718 5719 5721 5721 5722 5723 5724 5725 5727 5728 5729 5731 5733 5735 5738 5741 5742 5743 5744 5745 5747 5750 5753 5757 5755 5754 5757 5756 5757 5761 5764 5764 5766 5767 5765 5765 5767 5769 5771 5769 5768 5769 5770 5773 5774 5774
5690 5690 5690 5690 5691 5691 5692 5692 5692 5693 5694 5694 5695 5695 5695 5695 5695 5696 5697 5698 5697 5698 5697 5697 5697 5697 5698 5700 5700 5701 5703 5705 5706 5706 5708 5709 5709 5710 5711 5712 5714 5715 5716 5717 5718 5719 5720 5721 5722 5724 5725 5726 5728 5729 5731 5734 5735 5738 5741 5742 5744 5744 5746 5750 5753 5755 5754 5753 5755 5754 5756 5760 5761 5762 5765 5765 5762 5764 5766 5766 5769 5768 5766 5767 5767 5770 5774 5773
5686 5686 5687 5687 5687 5688 5688 5688 5689 5689 5690 5691 5692 5692 5692 5692 5692 5693 5695 5695 5694 5695 5695 5695 5695 5696 5696 5697 5698 5699 5701 5703 5703 5704 5705 5706 5707 5708 5709 5710 5711 5713 5714 5715 5715 5716 5718 5719 5721 5722 5723 5724 5725 5727 5729 5730 5730 5732 5735 5739 5743 5744 5745 5749 5753 5755 5752 5751 5754 5753 5754 5758 5759 5761 5764 5763 5762 5763 5764 5765 5766 5767 5766 5766 5764 5767 5772 5772
5683 5683 5683 5683 5684 5684 5685 5685 5685 5686 5687 5687 5688 5689 5689 5689 5690 5690 5691 5693 5692 5693 5694 5693 5693 5694 5694 5695 5697 5697 5698 5700 5700 5702 5703 5704 5705 5705 5707 5708 5709 5710 5711 5712 5713 5715 5716 5718 5719 5720 5721 5722 5723 5725 5726 5727 5727 5730 5733 5736 5741 5744 5746 5749 5752 5756 5750 5747 5753 5753 5752 5756 5757 5759 5761 5762 5761 5760 5761 5763 5764 5764 5765 5766 5762 5762 5769 5770
5680 5680 5680 5680 5680 5680 5681 5681 5682 5682 5683 5684 5685 5686 5686 5686 5687 5687 5688 5690 5690 5690 5691 5692 5691 5691 5693 5694 5695 5695 5696 5697 5698 5699 5700 5701 5702 5703 5705 5706 5707 5708 5709 5710 5712 5713 5715 5717 5717 5718 5719 5720 5721 5722 5724 5725 5727 5730 5732 5733 5737 5741 5746 5748 5749 5752 5747 5744 5750 5753 5752 5753 5755 5757 5758 5760 5762 5759 5757 5761 5763 5762 5763 5764 5760 5759 5765 5767
5676 5676 5676 5676 5677 5677 5678 5678 5678 5679 5679 5681 5682 5682 5683 5683 5684 5685 5685 5686 5688 5688 5688 5690 5689 5689 5691 5691 5692 5693 5694 5694 5695 5697 5698 5700 5700 5701 5703 5704 5705 5706 5707 5709 5710 5712 5714 5715 5715 5716 5717 5717 5719 5721 5723 5724 5726 5729 5730 5731 5734 5738 5744 5747 5747 5747 5745 5742 5746 5749 5750 5751 5753 5756 5755 5756 5762 5759 5755 5758 5760 5761 5762 5762 5757 5756 5760 5761
5673 5673 5673 5673 5673 5674 5675 5675 5675 5675 5676 5677 5678 5679 5680 5681 5681 5682 5682 5683 5685 5686 5685 5687 5688 5687 5688 5689 5690 5691 5691 5692 5694 5694 5696 5698 5698 5699 5701 5702 5703 5704 5706 5707 5708 5710 5712 5713 5713 5715 5715 5715 5717 5719 5721 5723 5724 5726 5728 5730 5732 5734 5739 5745 5745 5743 5742 5742 5742 5745 5747 5748 5750 5752 5751 5754 5758 5755 5753 5756 5758 5759 5759 5757 5754 5753 5755 5757
5671 5670 5670 5670 5670 5671 5672 5672 5672 5672 5673 5674 5675 5677 5677 5678 5678 5679 5680 5680 5682 5683 5683 5684 5686 5685 5685 5687 5688 5689 5689 5691 5692 5692 5694 5695 5696 5698 5699 5700 5701 5703 5704 5706 5707 5708 5710 5710 5711 5713 5713 5714 5716 5718 5719 5721 5722 5724 5726 5728 5731 5732 5734 5739 5742 5740 5739 5741 5742 5742 5742 5744 5746 5748 5749 5752 5753 5751 5752 5754 5755 5757 5757 5753 5751 5750 5753 5755
5668 5668 5668 5667 5667 5668 5669 5670 5670 5669 5670 5672 5673 5674 5674 5675 5676 5676 5677 5678 5679 5680 5681 5682 5684 5684 5683 5685 5686 5687 5687 5689 5689 5690 5692 5693 5694 5696 5697 5698 5700 5701 5703 5704 5705 5707 5709 5708 5708 5710 5712 5713 5715 5716 5718 5720 5720 5722 5725 5727 5729 5731 5731 5734 5737 5737 5736 5739 5740 5739 5740 5742 5744 5746 5748 5748 5749 5748 5749 5751 5752 5755 5754 5749 5747 5748 5752 5755
5665 5665 5664 5664 5665 5665 5666 5667 5667 5667 5667 5669 5670 5670 5672 5673 5673 5674 5675 5675 5676 5678 5679 5680 5682 5682 5682 5683 5684 5685 5685 5686 5687 5688 5690 5691 5692 5693 5695 5696 5698 5700 5701 5702 5704 5705 5707 5707 5707 5709 5711 5712 5713 5715 5716 5718 5719 5721 5723 5725 5728 5729 5730 5732 5733 5734 5734 5736 5737 5737 5739 5740 5741 5745 5745 5745 5746 5745 5746 5748 5749 5752 5750 5744 5743 5747 5752 5756
5661 5661 5661 5661 5661 5662 5662 5663 5664 5664 5664 5666 5667 5667 5669 5670 5670 5671 5671 5672 5674 5677 5677 5678 5679 5679 5680 5681 5682 5683 5684 5685 5686 5686 5687 5689 5689 5691 5693 5695 5697 5698 5699 5700 5703 5704 5705 5705 5706 5708 5710 5711 5712 5713 5715 5716 5718 5720 5720 5723 5726 5727 5728 5730 5730 5732 5733 5733 5734 5735 5737 5738 5740 5743 5742 5741 5743 5743 5744 5745 5746 5748 5746 5742 5742 5746 5750 5754
5658 5657 5657 5657 5658 5658 5658 5659 5660 5661 5661 5662 5663 5664 5666 5666 5667 5668 5668 5670 5674 5676 5674 5675 5676 5676 5677 5679 5680 5681 5682 5684 5683 5683 5685 5687 5688 5690 5691 5693 5694 5696 5697 5699 5701 5702 5702 5703 5704 5705 5708 5710 5711 5712 5713 5715 5717 5718 5719 5721 5723 5724 5726 5728 5729 5731 5732 5730 5731 5733 5735 5736 5739 5740 5739 5739 5741 5741 5742 5743 5743 5743 5741 5741 5743 5743 5745 5751
5654 5654 5654 5654 5654 5654 5655 5656 5656 5657 5658 5658 5659 5660 5661 5663 5664 5664 5665 5669 5672 5673 5671 5673 5674 5674 5676 5677 5678 5679 5681 5682 5681 5681 5684 5685 5686 5688 5689 5690 5692 5694 5695 5697 5699 5700 5700 5701 5703 5705 5707 5708 5709 5710 5712 5714 5715 5716 5718 5720 5721 5723 5725 5726 5727 5729 5728 5727 5729 5733 5734 5735 5737 5738 5737 5737 5739 5740 5740 5741 5740 5739 5738 5742 5745 5742 5742 5748
5651 5651 5650 5650 5650 5651 5651 5652 5652 5653 5654 5655 5655 5656 5657 5659 5659 5660 5664 5668 5671 5671 5670 5671 5672 5672 5673 5675 5676 5677 5679 5679 5679 5680 5682 5683 5684 5686 5687 5689 5691 5693 5695 5696 5698 5699 5699 5701 5702 5704 5706 5706 5707 5709 5710 5711 5713 5714 5716 5718 5720 5721 5723 5724 5725 5726 5725 5726 5729 5731 5733 5733 5734 5734 5735 5735 5736 5737 5737 5737 5737 5737 5738 5741 5742 5741 5741 5745
5648 5648 5647 5647 5647 5647 5648 5649 5649 5649 5650 5651 5651 5652 5653 5653 5655 5658 5662 5666 5668 5668 5668 5669 5669 5669 5671 5672 5673 5674 5676 5677 5677 5678 5680 5681 5682 5684 5685 5687 5689 5691 5694 5695 5696 5697 5698 5699 5701 5703 5704 5704 5706 5708 5709 5710 5712 5713 5715 5717 5718 5719 5720 5721 5723 5724 5725 5726 5728 5729 5730 5731 5731 5730 5732 5732 5733 5735 5734 5734 5735 5736 5737 5737 5737 5738 5739 5740
5645 5645 5645 5644 5644 5644 5645 5645 5646 5646 5647 5647 5648 5648 5649 5649 5652 5656 5660 5663 5665 5666 5666 5667 5667 5668 5669 5670 5671 5672 5673 5675 5674 5676 5678 5678 5679 5681 5683 5685 5686 5689 5692 5692 5693 5695 5696 5697 5699 5701 5702 5703 5705 5707 5708 5710 5711 5712 5714 5715 5716 5717 5718 5719 5721 5722 5724 5725 5726 5727 5727 5728 5727 5726 5728 5730 5732 5733 5732 5732 5732 5733 5735 5735 5734 5736 5735 5735
5643 5642 5642 5642 5642 5641 5642 5642 5643 5643 5643 5644 5644 5644 5645 5647 5650 5654 5657 5660 5662 5663 5664 5665 5665 5666 5667 5668 5669 5670 5671 5673 5672 5674 5675 5676 5677 5679 5681 5683 5685 5687 5690 5690 5691 5693 5694 5696 5697 5699 5700 5702 5704 5705 5706 5708 5710 5711 5712 5713 5714 5715 5716 5718 5719 5720 5721 5722 5723 5723 5724 5724 5724 5724 5725 5728 5730 5731 5731 5732 5731 5731 5732 5733 5733 5734 5733 5732
5640 5640 5640 5639 5639 5639 5639 5639 5640 5640 5640 5640 5640 5640 5642 5645 5648 5651 5654 5657 5659 5660 5662 5663 5663 5664 5665 5666 5667 5668 5669 5671 5671 5672 5673 5674 5676 5677 5679 5681 5683 5685 5688 5688 5690 5692 5693 5696 5697 5697 5698 5699 5702 5703 5704 5706 5708 5709 5711 5712 5713 5715 5715 5716 5718 5718 5719 5719 5721 5721 5721 5722 5723 5724 5724 5726 5728 5729 5729 5729 5728 5728 5729 5731 5733 5733 5731 5732
5638 5637 5637 5636 5636 5636 5635 5636 5636 5636 5636 5636 5636 5637 5640 5642 5644 5647 5650 5652 5655 5658 5659 5660 5660 5661 5663 5664 5665 5667 5668 5668 5669 5669 5670 5671 5673 5675 5677 5679 5680 5683 5685 5687 5689 5690 5691 5693 5694 5695 5696 5698 5700 5702 5703 5705 5706 5707 5709 5711 5712 5714 5714 5715 5716 5716 5716 5718 5719 5720 5719 5720 5721 5721 5722 5725 5727 5727 5725 5723 5725 5728 5729 5729 5731 5731 5729 5730
5635 5634 5634 5633 5633 5632 5632 5632 5633 5632 5632 5632 5633 5635 5637 5639 5641 5644 5647 5648 5650 5653 5654 5655 5656 5658 5660 5662 5663 5665 5665 5666 5666 5666 5667 5668 5669 5672 5675 5677 5678 5680 5682 5684 5686 5686 5686 5688 5691 5693 5695 5697 5698 5699 5701 5702 5704 5706 5707 5708 5709 5710 5712 5712 5713 5713 5715 5716 5717 5718 5719 5719 5719 5718 5718 5720 5723 5724 5723 5722 5724 5728 5729 5728 5728 5729 5727 5727
5632 5631 5631 5630 5629 5629 5628 5628 5629 5628 5628 5629 5630 5632 5633 5635 5637 5640 5642 5644 5645 5648 5649 5650 5652 5655 5657 5659 5661 5662 5663 5663 5663 5663 5664 5665 5666 5668 5672 5674 5675 5676 5679 5681 5682 5682 5684 5686 5688 5690 5692 5694 5695 5696 5698 5700 5702 5703 5705 5706 5707 5708 5709 5710 5710 5712 5714 5714 5715 5718 5719 5717 5716 5716 5716 5716 5717 5720 5721 5723 5724 5726 5728 5727 5727 5727 5726 5725
5629 5628 5627 5627 5626 5625 5625 5624 5625 5624 5624 5625 5626 5627 5629 5630 5633 5635 5637 5639 5640 5642 5644 5645 5648 5651 5654 5656 5658 5659 5660 5659 5660 5660 5661 5661 5663 5665 5668 5669 5670 5672 5675 5678 5680 5680 5681 5684 5686 5687 5688 5690 5692 5694 5696 5698 5700 5701 5702 5704 5705 5706 5707 5707 5708 5709 5711 5713 5713 5715 5716 5714 5713 5714 5714 5714 5715 5717 5718 5719 5721 5722 5725 5725 5726 5726 5725 5724
5626 5625 5624 5623 5623 5622 5621 5621 5620 5620 5620 5621 5621 5623 5624 5626 5628 5631 5633 5635 5636 5637 5639 5641 5643 5645 5648 5652 5654 5656 5656 5656 5657 5657 5657 5659 5660 5662 5664 5665 5667 5669 5671 5675 5677 5677 5677 5679 5683 5685 5686 5687 5690 5692 5694 5696 5698 5700 5701 5703 5704 5705 5705 5705 5706 5707 5709 5710 5711 5711 5711 5710 5711 5712 5713 5714 5715 5715 5715 5715 5715 5716 5719 5720 5721 5722 5723 5722
5624 5622 5621 5620 5619 5618 5618 5617 5616 5616 5616 5616 5617 5618 5619 5620 5623 5626 5629 5631 5631 5632 5634 5636 5638 5640 5642 5645 5648 5650 5652 5653 5654 5654 5655 5657 5657 5658 5660 5663 5665 5667 5667 5670 5672 5672 5673 5675 5678 5681 5683 5685 5687 5689 5689 5692 5696 5698 5700 5701 5702 5703 5703 5703 5705 5705 5706 5707 5708 5709 5709 5708 5709 5710 5710 5711 5712 5712 5712 5712 5711 5711 5714 5714 5714 5716 5718 5718
5621 5619 5618 5617 5616 5615 5614 5613 5612 5612 5612 5612 5613 5613 5614 5615 5618 5621 5623 5624 5625 5628 5630 5632 5634 5637 5640 5642 5643 5645 5647 5650 5650 5650 5651 5653 5653 5654 5658 5661 5663 5663 5664 5666 5668 5669 5671 5673 5675 5677 5680 5682 5684 5685 5685 5688 5691 5693 5695 5697 5698 5700 5700 5701 5703 5703 5703 5703 5705 5707 5706 5705 5707 5709 5708 5709 5709 5709 5710 5711 5711 5710 5711 5710 5709 5713 5715 5713
5619 5617 5615 5614 5612 5610 5609 5608 5607 5607 5607 5607 5608 5609 5609 5610 5612 5614 5617 5619 5621 5624 5626 5628 5631 5633 5636 5639 5640 5643 5645 5646 5647 5647 5647 5649 5651 5652 5655 5658 5660 5660 5662 5664 5664 5666 5669 5671 5672 5674 5676 5678 5679 5681 5682 5683 5684 5686 5689 5693 5695 5696 5697 5697 5698 5699 5699 5700 5702 5703 5702 5702 5703 5705 5706 5706 5706 5707 5708 5709 5710 5709 5709 5709 5709 5711 5712 5710
5617 5615 5612 5610 5608 5606 5604 5603 5602 5602 5602 5602 5603 5604 5605 5607 5608 5610 5612 5614 5617 5619 5620 5623 5626 5629 5631 5634 5638 5640 5641 5642 5645 5645 5645 5646 5648 5650 5652 5655 5657 5657 5658 5660 5661 5664 5667 5667 5669 5672 5673 5674 5675 5677 5679 5680 5681 5683 5685 5688 5690 5693 5695 5694 5694 5695 5696 5697 5699 5699 5699 5700 5700 5700 5702 5703 5703 5705 5706 5707 5707 5707 5706 5707 5707 5708 5709 5707
5615 5611 5608 5606 5603 5601 5599 5598 5597 5596 5596 5596 5598 5600 5602 5604 5605 5606 5608 5610 5613 5615 5616 5618 5621 5623 5625 5629 5632 5635 5637 5640 5642 5642 5643 5645 5645 5647 5649 5652 5654 5654 5655 5657 5659 5661 5663 5665 5667 5669 5670 5670 5672 5674 5675 5677 5679 5680 5681 5682 5684 5687 5690 5690 5691 5691 5692 5694 5695 5695 5696 5698 5697 5697 5698 5699 5699 5701 5703 5704 5706 5705 5705 5704 5704 5705 5706 5706
5612 5608 5605 5602 5600 5599 5597 5596 5594 5592 5591 5592 5593 5595 5598 5601 5602 5603 5605 5607 5609 5611 5613 5616 5618 5619 5622 5625 5628 5630 5633 5636 5638 5640 5643 5643 5643 5645 5648 5650 5651 5653 5654 5655 5657 5658 5660 5662 5664 5666 5668 5668 5669 5671 5673 5674 5675 5676 5677 5680 5681 5682 5683 5685 5686 5688 5689 5689 5690 5691 5693 5694 5694 5694 5695 5696 5697 5698 5700 5702 5704 5705 5705 5703 5701 5702 5704 5705
5609 5606 5603 5601 5599 5598 5596 5595 5592 5590 5589 5589 5589 5591 5594 5597 5599 5600 5602 5604 5606 5608 5610 5612 5615 5617 5620 5623 5625 5627 5630 5633 5636 5639 5641 5640 5640 5643 5647 5648 5648 5650 5652 5654 5655 5657 5659 5660 5661 5663 5665 5666 5666 5667 5670 5671 5672 5673 5675 5677 5678 5678 5679 5680 5681 5683 5684 5684 5685 5688 5689 5690 5691 5693 5694 5695 5695 5696 5697 5700 5702 5703 5703 5701 5698 5699 5701 5702
5608 5605 5602 5601 5599 5598 5596 5594 5591 5588 5587 5587 5587 5589 5592 5594 5595 5597 5599 5601 5603 5605 5607 5610 5612 5615 5618 5620 5622 5624 5626 5628 5632 5635 5635 5636 5638 5640 5644 5646 5646 5646 5649 5651 5652 5655 5656 5657 5659 5661 5662 5662 5662 5664 5665 5666 5668 5669 5671 5673 5674 5674 5675 5676 5678 5680 5680 5680 5682 5684 5685 5688 5689 5690 5691 5692 5693 5693 5694 5696 5698 5699 5699 5697 5695 5695 5698 5700
5607 5604 5602 5601 5599 5598 5596 5593 5590 5588 5586 5585 5586 5588 5590 5592 5593 5594 5597 5599 5600 5602 5605 5607 5610 5613 5614 5616 5617 5619 5621 5624 5628 5630 5631 5634 5637 5638 5641 5644 5644 5643 5645 5648 5649 5652 5654 5654 5656 5658 5659 5659 5659 5660 5661 5662 5664 5665 5667 5670 5670 5671 5672 5674 5676 5677 5677 5677 5679 5680 5682 5685 5686 5686 5688 5690 5690 5691 5691 5693 5694 5695 5695 5694 5693 5695 5697 5699
5607 5604 5602 5600 5599 5597 5595 5592 5589 5587 5586 5585 5586 5588 5589 5591 5591 5593 5595 5596 5597 5600 5602 5604 5607 5609 5610 5611 5614 5617 5620 5623 5625 5627 5629 5633 5636 5636 5637 5640 5641 5641 5643 5645 5646 5648 5650 5651 5653 5654 5655 5655 5656 5657 5658 5659 5660 5662 5664 5666 5666 5667 5669 5672 5673 5673 5674 5675 5676 5677 5679 5680 5681 5684 5686 5687 5687 5689 5689 5690 5690 5691 5692 5693 5694 5696 5697 5699
5607 5604 5601 5599 5598 5597 5595 5592 5589 5588 5587 5587 5587 5588 5589 5590 5590 5591 5592 5594 5596 5598 5600 5602 5604 5606 5607 5610 5613 5616 5618 5620 5622 5625 5627 5631 5633 5634 5634 5637 5638 5640 5642 5642 5643 5645 5646 5647 5649 5651 5651 5652 5653 5653 5654 5655 5657 5659 5660 5661 5662 5663 5664 5666 5668 5669 5670 5672 5672 5673 5674 5676 5678 5681 5683 5683 5684 5686 5687 5687 5687 5687 5688 5691 5693 5694 5696 5697